Miscellaneous Local Product
Issued by NWS North Platte, NE

Home | Current Version | Previous Version | Graphics & Text | Print | Product List | Glossary On
Versions: 1 2 3 4 5 6 7 8 9 10 11 12 13 14 15 16 17 18 19 20 21 22 23 24 25 26 27 28 29 30 31 32 33 34 35 36 37 38 39 40 41 42 43 44 45 46 47 48 49 50
000
AXUS43 KLBF 031010
MISLBF


WESTERN AND NORTH CENTRAL NEBRASKA HOURLY WEATHER ROUNDUP
NATIONAL WEATHER SERVICE NORTH PLATTE NE
500 AM CDT TUE MAY 03 2016

NOTE: "FAIR" INDICATES FEW OR NO CLOUDS BELOW 12,000 FEET WITH NO
SIGNIFICANT WEATHER AND/OR OBSTRUCTIONS TO VISIBILITY.

NOTE: STATIONS NOT REPORTING VARIABLES SUCH AS SKY/WEATHER OR
PRESSURE ARE PROVIDED BY RAWS AND APRS NETWORKS AND ARE NOT UNDER
NATIONAL WEATHER SERVICE QUALITY CONTROL.

...OBSERVATIONS IN AND NEAR THE EASTERN PANHANDLE OF NEBRASKA...

CITY           SKY/WX    TMP DP  RH WIND       PRES   REMARKS
PINE RIDGE     PTCLDY    31  29  92 CALM      30.08S
CHADRON        CLEAR     37  34  89 CALM      30.08S
ALLIANCE       CLEAR     34  33  96 CALM      30.07R
SIDNEY         CLEAR     39  34  82 NW14      30.07R WCI  31
CRESCENT LAKE    N/A     38  38  99 CALM        N/A
BIG SPRINGS      N/A     42  40  93 CALM        N/A
$$

...OBSERVATIONS IN NORTHERN NEBRASKA AND FAR SOUTHERN SOUTH DAKOTA...

CITY           SKY/WX    TMP DP  RH WIND       PRES   REMARKS
WINNER         FAIR      40  35  83 W3        30.05S
VALENTINE      CLEAR     36  35  96 W7        30.06S WCI  30
THEDFORD       CLEAR     39  38  97 NW3       30.07R
AINSWORTH      CLEAR     38  37  99 W6        30.05S WCI  33
O`NEILL        CLEAR     43  40  88 N6        30.05R
ORD            CLEAR     38  36  92 CALM      30.04R
BROKEN BOW     CLEAR     37  36  96 N5        30.04R WCI  33
VALENTINE NWR    N/A     38  38  99 CALM        N/A
BUTTE            N/A     43  39  86 CALM        N/A
HALSEY           N/A     40  40 100 CALM        N/A
CHAMBERS         N/A     39  35  86 N3          N/A
EWING            N/A     41  39  93 CALM        N/A
$$

...OBSERVATIONS IN SOUTHWEST NEBRASKA AND FAR NORTHEAST COLORADO...

CITY           SKY/WX    TMP DP  RH WIND       PRES   REMARKS
HOLYOKE        FAIR      41  37  87 NE6       30.06R
IMPERIAL       CLOUDY    44  42  93 NE6       30.05S
OGALLALA       MOCLDY    40  38  91 N5        30.06S
NORTH PLATTE   CLEAR     40  39  97 CALM      30.04R
MCCOOK         MOCLDY    41  40  96 NW7       30.04R
LEXINGTON      PTCLDY    41  38  89 CALM      30.04S
PAXTON           N/A     45  42  91 SE3         N/A
STAPLETON        N/A     39  38  95 CALM        N/A
GOTHENBURG       N/A     45  40  84 N3          N/A
CALLAWAY         N/A     41  38  89 CALM        N/A
$$

...OBSERVATIONS IN CENTRAL LINCOLN COUNTY AREA...

CITY           SKY/WX    TMP DP  RH WIND       PRES   REMARKS
N.P. AIRPORT   CLEAR     40  39  97 CALM      30.04R
N.P. DOWNTOWN    N/A     42  41  95 CALM        N/A
N.P. HILLCREST   N/A     41  40  96 NE5         N/A
$$

...SOME OBSERVATIONS FROM AROUND THE REGION...

CITY           SKY/WX    TMP DP  RH WIND       PRES   REMARKS
DENVER         MOCLDY    43  27  53 N12       30.16R
LARAMIE        CLOUDY    26  24  92 S5        30.23R WCI  20
CHEYENNE       CLEAR     40  28  62 NW13      30.16S WCI  32
SCOTTSBLUFF    CLEAR     39  34  82 NW8       30.10R WCI  33
RAPID CITY     CLEAR     42  34  73 NW10      30.07R
BISMARCK       PTCLDY    41  39  93 W3        30.00F
PIERRE         CLOUDY    40  38  93 SW5       30.03R
SIOUX FALLS    CLEAR     37  34  89 CALM      30.02S
OMAHA          CLEAR     45  42  89 SE3       30.05S
GRAND ISLAND   CLEAR     43  36  76 SE5       30.05R
KANSAS CITY    CLEAR     44  43  96 W5        30.06S
WICHITA        PTCLDY    46  41  82 CALM      30.06S
OKLAHOMA CITY  PTCLDY    43  41  93 SW3       30.08R
DALLAS         CLEAR     53  45  74 NW7       30.07S
AMARILLO       CLEAR     41  35  79 S9        30.10S
DODGE CITY     CLOUDY    47  35  63 SW10      30.05S
HAYS           CLOUDY    45  34  65 CALM      30.03R
GOODLAND       MOCLDY    44  39  82 W5        30.04R
$$




USA.gov is the U.S. government's official web portal to all federal, state and local government web resources and services.